User: anonymous   Login
Location: Ithaca
(42.4410°N, 76.4970°W)
Time: 05:28:20
(UTC-05:00)
Language:

Cosmos 1271 Rocket - Orbit

View from above orbital plane
View from above orbital plane
View from above satellite
View from above satellite

Ground track
Ground track

The orbit data is extracted from the following two-line orbital elements,

1 12465U 81046B   17321.56900934 +.00001162 +00000-0 +61667-4 0  9997
2 12465 081.2442 208.2146 0034739 166.2922 193.9258 15.14020741977575
Epoch (UTC): 17 November 2017 13:39:22
Eccentricity: 0.0034739
inclination: 81.2442°
perigee height: 500 km
apogee height: 548 km
right ascension of ascending node: 208.2146°
argument of perigee: 166.2922°
revolutions per day: 15.14020741
mean anomaly at epoch: 193.9258°
orbit number at epoch: 97757

The dashed part of the orbit path shows where the satellite is in the earth's shadow,  

DLR